Simultaneous Nadir Overpasses (SNOs) Predictions

Prediction of SNOs between FY3D and NOAA-19 Satellite Orbit:

Table of predicted SNOs for the next 14.0 days since TLE Epoch: 1/16/2021
Index Date (FY3D) Time (FY3D) Lat,Lon (FY3D) SZA (FY3D ) Date (NOAA-19) Time (NOAA-19) Lat,Lon (NOAA-19) SZA (NOAA-19 ) Distance(km) Time Diff (sec)
1 01/19/2021 16:56:03 -78.83, 78.43 79.61 01/19/2021 16:54:51 -78.83, 78.26 79.56 3.61 72
2 01/19/2021 17:46:49 78.85,-114.40 100.42 01/19/2021 17:45:56 78.84,-114.48 100.44 2.46 53
3 01/19/2021 18:37:33 -78.87, 52.82 79.57 01/19/2021 18:36:51 -78.85, 52.88 79.57 2.55 42
4 01/19/2021 19:28:18 78.85,-139.77 100.41 01/19/2021 19:27:56 78.85,-139.87 100.43 2.08 22
5 01/19/2021 20:19:02 -78.87, 27.45 79.58 01/19/2021 20:18:51 -78.86, 27.49 79.59 1.07 11
6 01/19/2021 21:09:47 78.85,-165.14 100.39 01/19/2021 21:09:56 78.87,-165.25 100.41 2.85 9
7 01/19/2021 22:00:31 -78.87, 2.08 79.60 01/19/2021 22:00:51 -78.88, 2.10 79.60 1.15 20
8 01/19/2021 22:51:17 78.89, 169.25 100.43 01/19/2021 22:51:56 78.88, 169.36 100.40 2.65 39
9 01/19/2021 23:42:00 -78.87, -23.29 79.61 01/19/2021 23:42:51 -78.89, -23.28 79.61 2.65 51
10 01/20/2021 00:32:46 78.89, 143.87 100.42 01/20/2021 00:33:56 78.90, 143.98 100.39 2.27 70



Historial Predications of SNOs between FY3D and NOAA-19
